Tracking 19280 objects as of 14-Nov-2018
HD Live streaming from Space Station
objects crossing your sky now

AEHF 4 (USA 288)

Track AEHF 4 (USA 288) now!
AEHF 4 (USA 288) is classified as:


NORAD ID: 43651
Int'l Code: 2018-079A
Perigee: 22,987.3 km
Apogee: 35,446.3 km
Inclination: 7.4 °
Period: 1,113.6 minutes
Semi major axis: 35587 km
RCS: Unknown
Launch date: October 17, 2018
Source: United States (US)
Launch site: AIR FORCE EASTERN TEST RANGE (AFETR)
aabbcc
Your satellite tracking list
Your tracking list is empty




NASA's NSSDC Master Catalog

Two Line Element Set (TLE):
1 43651U 18079A   18314.74422907 0.00000000  00000-0  00000-0 0    09
2 43651   7.4361 299.6849 1750462 183.7685 180.0000  1.29315631    02
Source of the keplerian elements: McCants